Pittsfield, IL

4:37 AM CST on February 12, 2016 (GMT -0600)
Pittsfield Penstone Municipal

Weather History for KPPQ - January, 2012

Change the Weather History Date:

Sunday, January 1, 2012

  Actual Average (KUIN) Record (KUIN)
Temperature  
Mean Temperature 44 °F 27 °F  
Max Temperature 52 °F 34 °F 60 °F (1905)
Min Temperature 36 °F 19 °F -13 °F (1974)
Degree Days  
Heating Degree Days 21 38  
Month to date heating degree days 38  
Since 1 July heating degree days 2229  
Cooling Degree Days 0 0  
Month to date cooling degree days 0  
Year to date cooling degree days 0  
Moisture  
Dew Point 24 °F    
Average Humidity 54    
Maximum Humidity 90    
Minimum Humidity 27    
Precipitation  
Precipitation 0.00 in 0.06 in 3.38 in (1965)
Month to date precipitation 0.06  
Year to date precipitation 0.06  
Sea Level Pressure  
Sea Level Pressure 30.05 in    
Wind  
Wind Speed 18 mph (West)    
Max Wind Speed 31 mph    
Max Gust Speed 45 mph    
Visibility 10 miles    
Events Rain    
T = Trace of Precipitation, MM = Missing Value Source: NWS Daily Summary

Daily Weather History Graph

Daily Weather History Graph

Search for Another Location

Airport or City:

Trip Planner

Search our weather history database for the weather conditions in past years. The results will help you decide how hot, cold, wet, or windy it might be!

Date:

Astronomy

Jan. 01, 2012 Rise Set
Actual Time 7:23 AM CST 4:49 PM CST
Civil Twilight 6:53 AM CST 5:19 PM CST
Nautical Twilight 6:19 AM CST 5:53 PM CST
Astronomical Twilight 5:47 AM CST 6:26 PM CST
Moon 11:37 AM CST (1/1) 12:20 AM CST (1/1)
Length of Visible Light 10h 25m
Length of Day
9h 25m
First Quarter, 55% of the Moon is Illuminated
Jan 1
First Quarter
Jan 9
Full
Jan 16
Last Quarter
Jan 23
New
Jan 30
First Quarter

Hourly Weather History & Observations

Time (CST) Temp. Windchill Dew Point Humidity Pressure Visibility Wind Dir Wind Speed Gust Speed Precip Events Conditions
12:15 AM 52.3 °F - 34.7 °F 51% 29.63 in 10.0 mi WSW 16.1 mph 25.3 mph N/A   Clear
12:35 AM 51.4 °F - 34.3 °F 52% 29.65 in 10.0 mi West 19.6 mph 28.8 mph N/A   Clear
12:55 AM 48.7 °F - 33.1 °F 55% 29.66 in 10.0 mi West 13.8 mph 31.1 mph N/A   Clear
1:15 AM 46.4 °F - 32.2 °F 58% 29.68 in 10.0 mi Calm Calm - N/A   Clear
1:35 AM 44.4 °F - 32.7 °F 64% 29.70 in 10.0 mi Calm Calm - N/A   Clear
1:55 AM 42.8 °F 33.3 °F 32.0 °F 66% 29.72 in 10.0 mi West 24.2 mph 35.7 mph N/A   Clear
2:15 AM 41.9 °F 33.4 °F 32.7 °F 70% 29.75 in 10.0 mi West 18.4 mph 25.3 mph N/A   Mostly Cloudy
2:35 AM 41.9 °F 33.1 °F 32.9 °F 70% 29.75 in 10.0 mi West 19.6 mph 28.8 mph N/A   Overcast
2:55 AM 42.1 °F 34.9 °F 33.1 °F 70% 29.77 in 10.0 mi West 13.8 mph 25.3 mph N/A   Overcast
3:15 AM 42.3 °F 34.8 °F 33.4 °F 71% 29.78 in 10.0 mi West 15.0 mph 23.0 mph N/A   Overcast
3:35 AM 42.1 °F - 33.4 °F 71% 29.80 in 10.0 mi Calm Calm - N/A   Overcast
3:55 AM 41.9 °F 31.5 °F 32.9 °F 70% 29.81 in 10.0 mi West 27.6 mph 39.1 mph N/A   Overcast
4:15 AM 41.5 °F 33.5 °F 32.7 °F 71% 29.83 in 10.0 mi West 16.1 mph 36.8 mph N/A   Overcast
4:35 AM 40.6 °F 29.8 °F 32.9 °F 74% 29.86 in 10.0 mi West 27.6 mph 38.0 mph N/A   Overcast
4:55 AM 38.8 °F 28.8 °F 34.7 °F 85% 29.88 in 7.0 mi West 20.7 mph 36.8 mph N/A Rain Light Rain
5:15 AM 38.3 °F 29.0 °F 35.6 °F 90% 29.90 in 5.0 mi West 17.3 mph 25.3 mph N/A   Overcast
5:35 AM 39.2 °F 29.8 °F 35.6 °F 87% 29.92 in 7.0 mi West 18.4 mph 28.8 mph N/A   Overcast
5:55 AM 39.7 °F 30.0 °F 35.2 °F 84% 29.95 in 10.0 mi WNW 20.7 mph 31.1 mph N/A   Overcast
6:15 AM 40.1 °F 30.5 °F 34.5 °F 80% 29.97 in 10.0 mi WNW 20.7 mph 31.1 mph N/A   Overcast
6:35 AM 39.9 °F 31.4 °F 33.3 °F 77% 29.99 in 10.0 mi West 16.1 mph 34.5 mph N/A   Overcast
6:55 AM 39.2 °F 28.7 °F 31.3 °F 73% 30.01 in 10.0 mi WNW 23.0 mph 34.5 mph N/A   Overcast
7:15 AM 38.3 °F 28.7 °F 30.6 °F 74% 30.03 in 10.0 mi WNW 18.4 mph 26.5 mph N/A   Mostly Cloudy
7:35 AM 37.4 °F 26.9 °F 29.8 °F 74% 30.05 in 10.0 mi West 20.7 mph 27.6 mph N/A   Scattered Clouds
7:55 AM 36.9 °F 28.2 °F 29.3 °F 74% 30.07 in 10.0 mi West 13.8 mph 26.5 mph N/A   Clear
8:15 AM 36.9 °F 25.9 °F 29.1 °F 74% 30.09 in 10.0 mi West 21.9 mph 28.8 mph N/A   Clear
8:35 AM 36.9 °F 26.8 °F 28.0 °F 70% 30.12 in 10.0 mi West 18.4 mph 25.3 mph N/A   Clear
8:55 AM 36.9 °F 26.8 °F 26.4 °F 66% 30.13 in 10.0 mi WNW 18.4 mph 31.1 mph N/A   Clear
9:15 AM 37.4 °F 26.9 °F 27.3 °F 67% 30.15 in 10.0 mi West 20.7 mph 28.8 mph N/A   Clear
9:35 AM 37.4 °F 28.5 °F 26.6 °F 65% 30.16 in 10.0 mi WNW 15.0 mph 24.2 mph N/A   Clear
9:55 AM 37.8 °F 28.0 °F 24.3 °F 58% 30.18 in 10.0 mi WNW 18.4 mph 27.6 mph N/A   Clear
10:15 AM 38.8 °F 29.7 °F 24.3 °F 56% 30.19 in 10.0 mi WNW 17.3 mph 24.2 mph N/A   Clear
10:35 AM 39.2 °F 30.2 °F 22.3 °F 51% 30.19 in 10.0 mi WNW 17.3 mph 29.9 mph N/A   Clear
10:55 AM 39.2 °F 31.2 °F 20.5 °F 47% 30.19 in 10.0 mi WNW 13.8 mph 27.6 mph N/A   Clear
11:15 AM 39.7 °F 30.0 °F 19.6 °F 44% 30.19 in 10.0 mi WNW 20.7 mph 31.1 mph N/A   Clear
11:35 AM 41.0 °F 31.4 °F 19.4 °F 42% 30.19 in 10.0 mi WNW 21.9 mph 33.4 mph N/A   Clear
11:55 AM 40.8 °F 31.4 °F 18.1 °F 40% 30.19 in 10.0 mi WNW 20.7 mph 32.2 mph N/A   Clear
12:15 PM 41.4 °F 31.9 °F 18.1 °F 39% 30.19 in 10.0 mi West 21.9 mph 32.2 mph N/A   Clear
12:35 PM 41.4 °F 31.9 °F 14.9 °F 34% 30.19 in 10.0 mi WNW 21.9 mph 34.5 mph N/A   Clear
12:55 PM 41.9 °F 33.1 °F 12.9 °F 31% 30.19 in 10.0 mi West 19.6 mph 35.7 mph N/A   Clear
1:15 PM 42.8 °F 33.8 °F 13.1 °F 30% 30.19 in 10.0 mi West 21.9 mph 32.2 mph N/A   Clear
1:35 PM 42.3 °F 32.8 °F 11.7 °F 29% 30.19 in 10.0 mi WNW 23.0 mph 36.8 mph N/A   Clear
1:55 PM 42.8 °F 32.7 °F 11.8 °F 28% 30.19 in 10.0 mi West 27.6 mph 41.4 mph N/A   Clear
2:15 PM 42.8 °F 33.3 °F 10.8 °F 27% 30.19 in 10.0 mi West 24.2 mph 35.7 mph N/A   Clear
2:35 PM 42.1 °F 32.8 °F 10.2 °F 27% 30.21 in 10.0 mi West 21.9 mph 34.5 mph N/A   Clear
2:55 PM 41.9 °F 31.5 °F 10.4 °F 28% 30.23 in 10.0 mi West 27.6 mph 44.9 mph N/A   Scattered Clouds
3:15 PM 40.6 °F 29.2 °F 8.6 °F 27% 30.24 in 10.0 mi WNW 31.1 mph 41.4 mph N/A   Scattered Clouds
3:35 PM 40.5 °F 30.2 °F 10.0 °F 29% 30.25 in 10.0 mi WNW 24.2 mph 36.8 mph N/A   Clear
3:55 PM 39.7 °F 29.0 °F 10.6 °F 30% 30.27 in 10.0 mi WNW 25.3 mph 31.1 mph N/A   Clear
4:15 PM 39.2 °F 28.7 °F 10.0 °F 30% 30.28 in 10.0 mi WNW 23.0 mph 34.5 mph N/A   Clear
4:35 PM 38.3 °F 27.3 °F 10.4 °F 32% 30.29 in 10.0 mi West 24.2 mph 33.4 mph N/A   Clear
4:55 PM 37.8 °F 26.6 °F 10.0 °F 32% 30.30 in 10.0 mi WNW 24.2 mph 34.5 mph N/A   Clear
5:15 PM 37.4 °F 27.8 °F 10.6 °F 33% 30.31 in 10.0 mi WNW 17.3 mph 31.1 mph N/A   Clear
5:35 PM 36.9 °F 26.8 °F 12.0 °F 36% 30.31 in 10.0 mi West 18.4 mph 26.5 mph N/A   Clear
5:55 PM 36.7 °F 26.0 °F 12.0 °F 36% 30.31 in 10.0 mi West 20.7 mph 29.9 mph N/A   Clear
6:15 PM 36.5 °F 27.8 °F 12.4 °F 37% 30.32 in 10.0 mi West 13.8 mph 24.2 mph N/A   Clear
6:35 PM 36.0 °F 26.3 °F 12.9 °F 39% 30.32 in 10.0 mi West 16.1 mph 28.8 mph N/A   Clear
6:55 PM 35.6 °F 25.5 °F 13.1 °F 40% 30.32 in 10.0 mi West 17.3 mph 25.3 mph N/A   Clear
7:15 PM 35.6 °F 25.9 °F 13.1 °F 40% 30.33 in 10.0 mi WNW 16.1 mph 24.2 mph N/A   Clear
7:35 PM 35.1 °F 26.9 °F 13.6 °F 41% 30.33 in 10.0 mi WNW 11.5 mph - N/A   Clear
7:55 PM 34.3 °F 25.5 °F 14.7 °F 45% 30.33 in 10.0 mi WNW 12.7 mph 19.6 mph N/A   Clear
8:15 PM 34.2 °F 24.4 °F 15.1 °F 46% 30.34 in 10.0 mi WNW 15.0 mph 23.0 mph N/A   Clear
8:35 PM 33.8 °F 23.9 °F 15.4 °F 47% 30.34 in 10.0 mi WNW 15.0 mph 21.9 mph N/A   Clear
8:55 PM 33.8 °F 23.2 °F 15.4 °F 47% 30.33 in 10.0 mi WNW 17.3 mph 26.5 mph N/A   Clear
9:15 PM 32.9 °F 22.4 °F 15.8 °F 49% 30.33 in 10.0 mi WNW 16.1 mph 29.9 mph N/A   Clear
9:35 PM 32.5 °F 21.9 °F 15.8 °F 50% 30.33 in 10.0 mi WNW 16.1 mph 25.3 mph N/A   Scattered Clouds
9:55 PM 32.2 °F 22.3 °F 16.2 °F 52% 30.33 in 10.0 mi WNW 13.8 mph 20.7 mph N/A   Scattered Clouds
10:15 PM 32.2 °F 22.7 °F 16.2 °F 52% 30.34 in 10.0 mi WNW 12.7 mph 21.9 mph N/A   Mostly Cloudy
10:35 PM 32.0 °F 21.6 °F 16.5 °F 53% 30.34 in 10.0 mi WNW 15.0 mph 25.3 mph N/A   Mostly Cloudy
10:55 PM 32.0 °F 20.5 °F 16.2 °F 52% 30.34 in 10.0 mi WNW 18.4 mph 27.6 mph N/A   Mostly Cloudy
11:35 PM 30.9 °F 19.4 °F 16.0 °F 54% 30.34 in 10.0 mi WNW 17.3 mph 27.6 mph N/A   Scattered Clouds
11:55 PM 30.2 °F 18.9 °F 15.6 °F 55% 30.34 in 10.0 mi WNW 16.1 mph 27.6 mph N/A   Clear